Weather Roundup
Issued by NWS Springfield, MO

Home | Current Version | Previous Version | Text Only | Print | Product List | Glossary On
Versions: 1 2 3 4 5 6 7 8 9 10 11 12 13 14 15 16 17 18 19 20 21 22 23 24 25 26 27 28 29 30 31 32 33 34 35 36 37 38 39 40 41 42 43 44 45 46 47 48 49 50
000
NZUS99 KSGF 140107
HRRSGF

HOURLY WEATHER
NATIONAL WEATHER SERVICE SPRINGFIELD MO
800 PM CDT SUN JUL 13 2014

......SGF CWA......

CITY           SKY/WX    TMP DP  RH WIND       PRES   REMARKS
SPRINGFIELD    MOCLDY    84  74  71 NW5       29.96S HX  91
JOPLIN         PTCLDY    86  71  60 NE3       29.95S HX  91
WEST PLAINS    PTCLDY    83  71  67 S6        29.98F
ROLLA          MOCLDY    79  71  76 N6        29.95F
OSAGE BEACH    MOCLDY    81  72  74 NE6       29.95F
BRANSON        PTCLDY    88  72  58 S7        29.99S HX  94

......SURROUNDING SGF CWA......

CITY           SKY/WX    TMP DP  RH WIND       PRES   REMARKS
CHANUTE        PTCLDY    84  70  62 N6        29.97R
PARSONS        PTCLDY    84  70  62 NE5       29.96S
COFFEYVILLE    PTCLDY    87  72  60 N8        29.93S HX  93
EMPORIA        PTCLDY    83  68  60 VRB3      30.00R
GROVE OK       TSTM      84  75  74 W8G18     29.96R HX  92
ROGERS AR      PTCLDY    86  70  58 S8        29.99F HX  90
SILOAM SPRINGS CLEAR     86  68  54 S7        29.98S
HARRISON AR    PTCLDY    83  70  64 S5        29.99S
NEAR YELLVILLE   N/A     86  70  58 S5        29.96S HX  90

......KANSAS AND MISSOURI......

CITY           SKY/WX    TMP DP  RH WIND       PRES   REMARKS
KANSAS CTY INT PTCLDY    83  69  62 N3        29.99R
DOWNTOWN KC    PTCLDY    84  67  56 NE8       29.97R
COLUMBIA       LGT RAIN  74  73  97 N5        29.96F FOG
SEDALIA        MOCLDY    75  73  93 N3        29.98F
ST JOSEPH      CLEAR     82  72  71 NW3       29.97R
ST LOUIS       CLOUDY    80  73  79 NW6       29.94F
SPIRIT OF STL  MOCLDY    77  73  87 CALM      29.92F
KIRKSVILLE     CLEAR     82  73  74 CALM      29.96F
WICHITA        MOCLDY    84  68  58 NE8       29.99F
TOPEKA         CLEAR     85  69  58 CALM      29.98S
OLATHE         PTCLDY    83  68  60 N7        29.98R

......TENNESSEE......

CITY           SKY/WX    TMP DP  RH WIND       PRES   REMARKS
MEMPHIS        MOCLDY    88  74  63 SW3       29.99S HX  96
NASHVILLE      PTCLDY    87  71  58 SW3       29.99F HX  93

......ARKANSAS.......

CITY           SKY/WX    TMP DP  RH WIND       PRES   REMARKS
FAYETTEVILLE   CLEAR     84  73  69 SE12G26   29.98S HX  90
FT SMITH       CLEAR     91  71  51 SW6       29.93F HX  97
LITTLE ROCK    PTCLDY    87  70  56 S6        29.97S HX  92

......OKLAHOMA.......

CITY           SKY/WX    TMP DP  RH WIND       PRES   REMARKS
TULSA          MOCLDY    89  73  59 NW7       29.91S HX  97
PONCA CITY     PTCLDY    88  70  55 NE6       29.97R HX  93
MCALESTER      CLEAR     87  78  74 CALM      29.96F HX 100
OKLAHOMA CITY  MOCLDY    89  64  43 W6        29.97R HX  90

......IOWA............

CITY           SKY/WX    TMP DP  RH WIND       PRES   REMARKS
DES MOINES     PTCLDY    82  61  48 NW6       29.94S
QUAD CITIES    MOCLDY    72  65  78 SW3       29.91F

......ILLINOIS........

CITY           SKY/WX    TMP DP  RH WIND       PRES   REMARKS
QUINCY         PTCLDY    81  67  62 CALM      29.94S
CHICAGO        MOCLDY    80  63  55 W12       29.88S




USA.gov is the U.S. government's official web portal to all federal, state and local government web resources and services.